Location: Unspecified
(0.0000°N, 0.0000°E)
Time: 01:06:43
(UTC+00:00)

N. Korean satellite - Pass Details

Date: 15 January 2021
Orbit: 453 x 502 km, 97.2° (Epoch: 16 January)

Event Time Altitude Azimuth Distance (km) Brightness Sun altitude
Rises 04:41:42 0° 25° (NNE) 2,469 10.2 -20.4°
Reaches altitude 10° 04:43:51 10° 34° (NE) 1,592 9.3 -19.9°
Maximum altitude 04:46:59 34° 101° (E) 766 8.2 -19.2°
Drops below altitude 10° 04:50:06 10° 167° (SSE) 1,588 9.6 -18.5°
Sets 04:52:14 0° 177° (S) 2,462 10.5 -18.0°
